星链-30989 (STARLINK-30989 )

导读 | 豆包AI

STARLINK-30989是美国SpaceX公司星链(Starlink)星座中的一颗卫星,于2023年12月7日发射升空,属于星链二代Gen2部署阶段的卫星。星链项目旨在通过近地轨道的海量卫星,为全球提供高速低延迟的卫星互联网服务,覆盖偏远区域,并拓展至海事、航空等商业及特殊应用场景,该卫星的发射推进了星链星座的全球组网进程,进一步强化了星座服务覆盖能力,同时其大规模低轨卫星部署也引发了关于太空资源利用的全球讨论。

Basic Information
目录编号:
58510
目录名称:
STARLINK-30989
国际标识:
2023-191C
轨道中心:
EARTH
卫星名称:
星链-30989
卫星全名:
星链-30989 (STARLINK-30989 )
卫星状态:
在轨 (已飞行875 天)
发射日期:
2023-12-07 UTC
国别 :
美国 (US)
星等 :
--
Orbit Information
数据来源 国际轨道数据 AOE轨道数据
星历时间 2026-04-30T18:41:42+0800
11小时前
查看轨道信息
2026-04-30T02:00:00+0800
1天前
查看轨道信息
半长轴 6861.184km 6861.19km
偏心率 0.0000914 0.0001117
轨道倾角 43.000° 43.002°
近地点辐角 285.976° 287.034°
升交点赤经 171.409° 175.339°
平近点角 74.099° 203.100°
近地点 482.419km 482.286km
远地点 483.675km 483.82km
周期 94.267分钟 94.267分钟
每日圈数 15.275809 15.275787
Detailed Information
固有亮度:
5
最大亮度:
0.3
卫星平台:
Starlink v2.0 mini
覆盖范围:
全球
运营商:
太空探索技术公司
运营商所在国:
美国
制造商(研发单位):
太空探索技术公司
制造商所在国:
美国
使用方式:
暂无
Satellite Introduction
星链(Starlink)计划是由太空探索技术公司(SpaceX)提出的一个巨型低轨卫星互联网星座项目,计划在2019年至2024年间在太空搭建由约1.2万颗卫星组成的“星链”网络,其中1584颗将部署在地球上空550千米处的近地轨道,并从2020年开始工作。该卫星仍在工作。
2D Orbit Map
3D Orbit Map
Orbit Altitude Analysis Chart
Orbit Inclination Analysis Chart
Orbit Comprehensive Analysis Chart
View Comprehensive Chart